This demonstration page uses our WeatherBlox Daily Observations layout. Learn more.

Left ArrowRight Arrow

34.74481, -87.66753

Hourly Observations for April 1, 2021

Temp ( °F °C ) Dew Point ( °F °C ) Humidity (%) Winds ( mph kmh ) Pressure ( in mb ) Visibility ( mi km ) Precip ( " mm )
12:53 am 00:53 Clear 42 5.6 28 -2.2 58 58 NW 5 7 30.33 1027 10 16 0.00 0.00
1:53 am 01:53 Clear 45 7.2 26 -3.3 48 48 N 12 19 30.34 1028 10 16 0.00 0.00
2:53 am 02:53 Clear 45 7.2 23 -5 42 42 N 8 13 30.36 1028 10 16 0.00 0.00
3:53 am 03:53 Clear 43 6.1 23 -5 45 45 NNW 8 13 30.37 1028 10 16 0.00 0.00
4:53 am 04:53 Clear 41 5 24 -4.4 51 51 NNW 5 7 30.37 1028 10 16 0.00 0.00
5:53 am 05:53 Clear 38 3.3 25 -3.9 60 60 NW 3 6 30.37 1029 10 16 0.00 0.00
6:53 am 06:53 Sunny 39 3.9 24 -4.4 55 55 NNW 3 6 30.40 1029 10 16 0.00 0.00
7:53 am 07:53 Sunny 42 5.6 20 -6.7 41 41 N 8 13 30.42 1030 10 16 0.00 0.00
8:53 am 08:53 Sunny 44 6.7 19 -7.2 37 37 N 12 19 30.43 1030 10 16 0.00 0.00
9:53 am 09:53 Sunny 45 7.2 16 -8.9 31 31 N 13 20 30.45 1031 10 16 0.00 0.00
10:53 am 10:53 Sunny 48 8.9 18 -7.8 30 30 NNW 17 28 30.45 1031 10 16 0.00 0.00
11:53 am 11:53 Sunny 49 9.4 18 -7.8 29 29 WNW 12 19 30.45 1031 10 16 0.00 0.00
12:53 pm 12:53 Sunny 51 10.6 20 -6.7 29 29 NNE 12 19 30.43 1031 10 16 0.00 0.00
1:53 pm 13:53 Sunny 52 11.1 18 -7.8 26 26 N 14 22 30.41 1030 10 16 0.00 0.00
2:53 pm 14:53 Sunny 53 11.7 19 -7.2 26 26 NNW 16 26 30.40 1029 10 16 0.00 0.00
3:53 pm 15:53 Sunny 54 12.2 19 -7.2 25 25 NW 10 17 30.37 1029 10 16 0.00 0.00
4:53 pm 16:53 Sunny 54 12.2 18 -7.8 24 24 NNW 15 24 30.37 1028 10 16 0.00 0.00
5:53 pm 17:53 Sunny 53 11.7 16 -8.9 23 23 N 10 17 30.37 1029 10 16 0.00 0.00
6:53 pm 18:53 Sunny 50 10 16 -8.9 26 26 N 13 20 30.39 1029 10 16 0.00 0.00
7:53 pm 19:53 Clear 48 8.9 18 -7.8 30 30 N 9 15 30.40 1029 10 16 0.00 0.00
8:53 pm 20:53 Clear 46 7.8 20 -6.7 35 35 N 7 11 30.42 1030 10 16 0.00 0.00
9:53 pm 21:53 Clear 44 6.7 20 -6.7 38 38 N 5 7 30.43 1030 10 16 0.00 0.00
10:53 pm 22:53 Clear 43 6.1 21 -6.1 42 42 NNE 9 15 30.43 1031 10 16 0.00 0.00

Powered by AerisWeather